Location: ?????
(37.7324°N, 23.9257°E)
Time: 21:21:24
(UTC+00:00)

Cosmos 990 Rocket - Pass Details

Date: 29 November 2020
Orbit: 747 x 768 km, 74.0° (Epoch: 19 January)

Event Time Altitude Azimuth Distance (km) Brightness Sun altitude
Rises 03:44:59 0° 210° (SSW) 3,209 7.1 -18.3°
Reaches altitude 10° 03:47:24 10° 215° (SW) 2,291 6.3 -17.8°
Maximum altitude 03:52:28 52° 292° (WNW) 950 4.1 -16.8°
Drops below altitude 10° 03:57:35 10° 8° (N) 2,313 6.4 -15.8°
Sets 04:00:03 0° 13° (NNE) 3,245 7.2 -15.4°
